This demonstration page uses our WeatherBlox Daily Observations layout. Learn more.

Left ArrowRight Arrow

31.31129, -92.44514

Hourly Observations for April 25, 2016

Temp ( °F °C ) Dew Point ( °F °C ) Humidity (%) Winds ( mph kmh ) Pressure ( in mb ) Visibility ( mi km ) Precip ( " mm )
12:53 am 00:53 Clear 65 18.3 61 16.1 87 87 SSE 6 9 29.91 1013 10 16 0.00 0.00
1:53 am 01:53 Clear 65 18.3 62 16.7 90 90 SE 7 11 29.89 1012 10 16 0.00 0.00
2:53 am 02:53 Clear 63 17.2 61 16.1 93 93 SSE 6 9 29.87 1012 10 16 0.00 0.00
3:53 am 03:53 Clear 62 16.7 61 16.1 96 96 SE 5 7 29.88 1012 10 16 0.00 0.00
4:53 am 04:53 Clear 63 17.2 61 16.1 93 93 SSE 3 6 29.89 1012 10 16 0.00 0.00
5:53 am 05:53 Mostly Cloudy 62 16.7 61 16.1 96 96 SE 7 11 29.89 1012 10 16 0.00 0.00
6:53 am 06:53 Mostly Sunny 63 17.2 61 16.1 93 93 ESE 7 11 29.90 1013 9 14 0.00 0.00
7:53 am 07:53 Sunny 65 18.3 62 16.7 90 90 SSE 9 15 29.91 1013 10 16 0.00 0.00
8:53 am 08:53 Sunny 70 21.1 64 17.8 82 82 SSE 7 11 29.91 1013 10 16 0.00 0.00
9:53 am 09:53 Sunny 76 24.4 66 18.9 72 72 SE 9 15 29.92 1013 10 16 0.00 0.00
10:53 am 10:53 Partly Cloudy 79 26.1 65 18.3 62 62 S 10 17 29.91 1013 10 16 0.00 0.00
11:53 am 11:53 Partly Cloudy 81 27.2 65 18.3 58 58 S 7 11 29.91 1013 10 16 0.00 0.00
12:53 pm 12:53 Mostly Cloudy 81 27.2 65 18.3 58 58 SSW 9 15 29.89 1012 10 16 0.00 0.00
1:53 pm 13:53 Mostly Cloudy 82 27.8 65 18.3 56 56 SSW 7 11 29.87 1012 10 16 0.00 0.00
2:53 pm 14:53 Mostly Cloudy 84 28.9 67 19.4 57 57 SE 10 17 29.85 1011 10 16 0.00 0.00
3:24 pm 15:24 Mostly Cloudy with Heavy Rain 75 23.9 70 21.1 84 84 SSW 14 22 29.85 1011 2 3 0.09 2.29
3:38 pm 15:38 Cloudy with Rain 74 23.3 70 21.1 88 88 SE 7 11 29.85 1011 3 5 0.19 4.83
3:53 pm 15:53 Cloudy 77 25 71 21.7 82 82 SSE 7 11 29.85 1011 10 16 0.19 4.83
4:53 pm 16:53 Partly Cloudy 75 23.9 69 20.6 82 82 S 7 11 29.85 1011 10 16 0.00 0.00
5:53 pm 17:53 Cloudy 76 24.4 70 21.1 82 82 S 6 9 29.83 1010 10 16 0.00 0.00
6:53 pm 18:53 Cloudy 77 25 68 20 74 74 SSE 10 17 29.81 1010 10 16 0.00 0.00
7:53 pm 19:53 Clear 74 23.3 69 20.6 85 85 S 6 9 29.82 1010 10 16 0.00 0.00
8:53 pm 20:53 Mostly Clear 71 21.7 69 20.6 94 94 SSE 6 9 29.84 1011 10 16 0.00 0.00
9:53 pm 21:53 Mostly Cloudy 70 21.1 69 20.6 97 97 SE 6 9 29.86 1011 8 13 0.00 0.00
10:53 pm 22:53 Clear 70 21.1 69 20.6 97 97 SE 7 11 29.85 1011 8 13 0.00 0.00
11:53 pm 23:53 Clear 70 21.1 69 20.6 97 97 SSE 6 9 29.85 1011 7 11 0.00 0.00

Powered by AerisWeather